Regional Weather Roundup
Issued by NWS

Home | Current Version | Previous Version | Graphics & Text | Print | Product List | Glossary On
Versions: 1 2 3 4 5 6 7 8 9 10 11 12 13 14 15 16 17 18 19 20 21 22 23 24 25 26 27 28 29 30 31 32 33 34 35 36 37 38 39 40 41 42 43 44 45 46 47 48 49 50
000
ASUS43 KMPX 301601
RWRMN
WEATHER ROUNDUP FOR MINNESOTA
NATIONAL WEATHER SERVICE TWIN CITIES/CHANHASSEN MN
1100 AM CDT THU JUL 30 2015


NOTE: "FAIR" INDICATES FEW OR NO CLOUDS BELOW 12,000 FEET WITH NO
SIGNIFICANT WEATHER AND/OR OBSTRUCTIONS TO VISIBILITY. N/A MEANS
CURRENT SKY AND/OR WEATHER CONDITIONS ARE NOT AVAILABLE.

MNZ060>063-068>070-301700-
   Twin Cities Metro

CITY           SKY/WX    TMP DP  RH WIND       PRES   REMARKS
TWIN CITIES    SUNNY     80  57  45 W13       30.04S
ST PAUL        SUNNY     80  57  45 W17G24    30.03S
CRYSTAL        SUNNY     79  57  46 W15       30.03S
BLAINE         SUNNY     81  61  50 W14G20    30.04R
LAKEVILLE      SUNNY     75  59  57 W10G16    30.06S
EDEN PRAIRIE   SUNNY     80  58  46 W13       30.05R
SOUTH ST PAUL  SUNNY     80  56  43 NW10G17   30.03F
LAKE ELMO      FAIR      77  59  53 W9G17     30.04S
$$
MNZ001>005-007-008-013>017-022>024-027-028-301700-
   Northwest Minnesota

CITY           SKY/WX    TMP DP  RH WIND       PRES   REMARKS
BEMIDJI        SUNNY     73  58  57 W14G20    30.00S
HALLOCK        SUNNY     73  57  56 W15G21    29.96S
ROSEAU         MOSUNNY   73  63  68 W12       29.94S
WARROAD        MOSUNNY   70  63  78 W13       29.93S
THIEF RVR FALL SUNNY     72  57  60 W15       30.00S
CROOKSTON      SUNNY     75  57  53 NW17      30.01S
FOSSTON        MOSUNNY   70  59  68 W10G18    30.02F
DETROIT LAKES  MOSUNNY   72  55  56 W17       30.07S
MOORHEAD       MOSUNNY   72  61  68 NW9       30.07S
PARK RAPIDS    SUNNY     76  57  51 W16       30.04R
MAHNOMEN       PTSUNNY   69  59  68 W10G16    30.04S
$$
MNZ006-009>011-018-025>026-301700-
   North Central Minnesota

CITY           SKY/WX    TMP DP  RH WIND       PRES   REMARKS
BAUDETTE       SUNNY     72  60  66 W12       29.92S
FLAG ISLAND    SUNNY     72  57  60 W12       29.89S
INTL FALLS     MOSUNNY   69  59  70 W8        29.91F
WASKISH        SUNNY     72  61  68 SW15G21   29.95F
BIG FORK       SUNNY     73  61  64 W9        29.96S
LONGVILLE      SUNNY     75  59  57 W10G17    30.00S
GRAND RAPIDS   SUNNY     73  57  56 W9G16     29.98S
CRANE LAKE     MOSUNNY   70  54  56 SW8       29.93F
ORR            LGT RAIN  63  55  77 W6        29.93R
COOK           MOSUNNY   70  57  64 W13       29.96R
WALKER         FAIR      73  58  59 W10G22    30.00S
$$
MNZ012-019>021-037-301700-
   Northeast Minnesota

CITY           SKY/WX    TMP DP  RH WIND       PRES   REMARKS
DULUTH         MOSUNNY   76  57  51 W14G20    29.96S
ELY            SUNNY     72  50  46 NW13G20   29.93R
HIBBING        SUNNY     75  57  53 VRB7      29.95F
EVELETH        SUNNY     73  55  53 NW12      29.96S
DULUTH HARBOR  SUNNY     79  59  50 W10       29.94F
TWO HARBORS    SUNNY     79  63  57 W7G17     29.92S
SILVER BAY     SUNNY     77  52  41 W7        29.90S
GRAND MARAIS     N/A     76  53  44 VRB7G22   29.85R
G MARAIS ARPRT SUNNY     70  50  49 W13G18    29.90R
$$
MNZ029>031-032-039>041-046>048-054>057-064-301700-
   West Central Minnesota

CITY           SKY/WX    TMP DP  RH WIND       PRES   REMARKS
FERGUS FALLS   SUNNY     73  59  60 NW14      30.07F
WHEATON        SUNNY     75  57  53 W10G17    30.11R
MORRIS         SUNNY     77  61  57 W13       30.09R
ALEXANDRIA     SUNNY     74  58  57 NW8       30.10R
ELBOW LAKE     FAIR      73  60  62 W13       30.09R
WADENA         SUNNY     75  57  53 W10       30.05S
GLENWOOD       SUNNY     75  57  53 W14       30.10R
APPLETON       SUNNY     81  57  44 NW9       30.09S
BENSON         SUNNY     79  57  47 NW9       30.09S
ORTONVILLE     SUNNY     81  57  44 NW7       30.10S
MADISON        SUNNY     81  54  39 W8        30.10S
WILLMAR        FAIR      77  61  57 W9        30.11R
$$
MNZ033>034-036-042>043-049>051-058-059-301700-
   Central Minnesota

CITY           SKY/WX    TMP DP  RH WIND       PRES   REMARKS
ST CLOUD       SUNNY     78  58  49 W14       30.05S
SAUK CENTRE    FAIR      75  59  57 W14       30.08R
PAYNESVILLE    SUNNY     74  56  53 SW14      30.09R
AITKIN         SUNNY     77  61  57 W6        30.00R
PINE RIVER     SUNNY     75  61  60 W9        30.05R
BRAINERD       SUNNY     76  58  53 W16G24    30.03R
STAPLES        SUNNY     75  55  50 W14       30.05R
LONG PRAIRIE   FAIR      73  55  53 W16G22    30.08R
LITTLE FALLS   SUNNY     75  55  50 W10G16    30.05S
LITCHFIELD     SUNNY     79  59  50 W12G17    30.09R
BUFFALO        SUNNY     77  58  52 W12       30.06S
MAPLE LAKE     SUNNY     77  61  57 W12       30.07S
$$
MNZ037-044-045-052-053-301700-
   East Central Minnesota

CITY           SKY/WX    TMP DP  RH WIND       PRES   REMARKS
PRINCETON      SUNNY     79  63  57 W10       30.04S
MORA           SUNNY     75  57  53 NW10      30.03S
CAMBRIDGE      SUNNY     79  61  53 W9        30.01S
RUSH CITY      SUNNY     77  62  59 W8        30.02S
MOOSE LAKE     SUNNY     77  59  53 W10       29.97S
HINCKLEY       FAIR      77  61  57 W13G18    30.01S
CLOQUET        SUNNY     75  54  46 W12       29.97F
MCGREGOR       SUNNY     77  59  53 W12       30.00S
$$
MNZ071>073-080-081-089-090-097-098-301700-
   Southwest Minnesota

CITY           SKY/WX    TMP DP  RH WIND       PRES   REMARKS
MONTEVIDEO     SUNNY     81  63  54 NW6       30.12S
GRANITE FALLS  SUNNY     77  62  58 W6        30.13R
CANBY          SUNNY     80  51  35 NW10G16   30.13S
MARSHALL       SUNNY     79  55  44 NW10      30.14R
REDWOOD FALLS  SUNNY     80  59  48 NW10      30.10S
OLIVIA         SUNNY     73  55  53 NW8       30.10R
PIPESTONE      SUNNY     77  59  53 NW7       30.16R
WINDOM         SUNNY     81  59  47 W9        30.14R
WORTHINGTON    SUNNY     75  61  60 W9        30.15R
JACKSON        SUNNY     79  61  53 W9        30.15R
TRACY          SUNNY     79  61  53 NW9       30.14R
SLAYTON        SUNNY     77  57  49 CALM      30.16R
$$
MNZ065>067-074>077-082>085-091>093-301700-
   South Central Minnesota

CITY           SKY/WX    TMP DP  RH WIND       PRES   REMARKS
MANKATO        SUNNY     77  57  50 NW15      30.10R
NEW ULM        SUNNY     77  59  53 W10       30.10S
ST JAMES       SUNNY     81  63  54 W10G21    30.12S
FAIRMONT       SUNNY     81  57  44 W10       30.12S
GLENCOE        SUNNY     77  62  58 W10G17    30.08R
FARIBAULT      SUNNY     77  61  57 W15       30.09R
OWATONNA       SUNNY     77  59  53 W10G18    30.09S
WASECA         SUNNY     77  61  57 W13       30.11S
ALBERT LEA     SUNNY     81  59  47 W9        30.11R
$$
MNZ078>079-086>088-094>096-301700-
   Southeast Minnesota

CITY           SKY/WX    TMP DP  RH WIND       PRES   REMARKS
ROCHESTER      SUNNY     76  59  55 NW14      30.10R
RED WING       SUNNY     81  55  41 W14       30.03S
STANTON        SUNNY     78  59  52 W14       30.06R
DODGE CENTER   SUNNY     75  57  53 W13G20    30.09S
WINONA         SUNNY     79  55  44 W12G17    30.05S
AUSTIN         SUNNY     79  57  47 W9        30.10R
PRESTON        SUNNY     78  56  47 W15       30.10R
$$
ABBREVIATIONS USED IN REMARKS
   TC - TEMPERATURES IN CELSIUS
  WCI - WIND CHILL INDEX
   HX - HEAT INDEX
  VSB - VISIBILITY
$$


USA.gov is the U.S. government's official web portal to all federal, state and local government web resources and services.